DW6758 Georgetown SC US current weather conditions

sailwx.info

Last reported at 2020-Jan-26 13:00 UTC.
Time now 2020-Jan-26 14:00 UTC

Location: N 33°23' W 079°11'.
View on Google Maps.

See reports from other nearby stations

  
Tides and Currents Weather Stations Pressure Air Temp Water Temp Dewpoint Dewpoint Depression Visibility Wind Speed Wind Dir Waves Ship Positions
date/time (UTC)wind fromknots sea level pressurealtimeterstation pressurevisibilityair tempwater tempwave heightnotes
2020-Jan-26 13:00
2020-Jan-26 12:46
2020-Jan-26 12:30
2020-Jan-26 12:15
2020-Jan-26 12:00
2020-Jan-26 11:45
2020-Jan-26 11:33
2020-Jan-26 11:16
2020-Jan-26 11:02
2020-Jan-26 10:46
2020-Jan-26 10:32
2020-Jan-26 10:16
2020-Jan-26 10:01
2020-Jan-26 09:46
2020-Jan-26 09:30
2020-Jan-26 09:15 286 5.0
2020-Jan-26 09:00 284 6.1
2020-Jan-26 08:45 285 6.1
2020-Jan-26 08:30 285 6.1
2020-Jan-26 08:15 285 6.1
2020-Jan-26 08:02 284 6.1
2020-Jan-26 07:47 284 6.7
2020-Jan-26 07:32 312 6.7
2020-Jan-26 07:16 312 6.7
2020-Jan-26 07:01 312 6.7
2020-Jan-26 06:46 311 6.7
2020-Jan-26 06:30 309 7.2
2020-Jan-26 06:16 323 7.2
2020-Jan-26 06:02 323 7.2
2020-Jan-26 05:45 060 7.2
2020-Jan-26 05:30 032 7.2
2020-Jan-26 05:16 262 6.7
2020-Jan-26 05:00 262 6.1
2020-Jan-26 04:47 262 6.1
2020-Jan-26 04:32 262 5.6
2020-Jan-26 04:16 261 6.1
2020-Jan-26 04:02 262 5.6
2020-Jan-26 03:46 262 5.6
2020-Jan-26 03:31 262 6.1
2020-Jan-26 03:16 262 6.1
2020-Jan-26 03:01 261 6.1
2020-Jan-26 02:45 262 6.7
2020-Jan-26 02:30 261 6.7
2020-Jan-26 02:16 262 6.7
2020-Jan-26 02:00 262 6.7
2020-Jan-26 01:45 261 7.2
2020-Jan-26 01:17 261 7.2
2020-Jan-26 01:01 261 7.2
2020-Jan-26 00:46 262 7.8
2020-Jan-26 00:32 262 7.8
2020-Jan-26 00:16 262 7.8
2020-Jan-26 00:02 261 8.3
2020-Jan-25 23:45 261 8.9
2020-Jan-25 23:31 261 9.4
2020-Jan-25 23:15 262 10.0
2020-Jan-25 23:00 261 11.1
2020-Jan-25 22:45 262 11.7
2020-Jan-25 22:30 285 12.2
2020-Jan-25 22:15 303 13.3
2020-Jan-25 22:02 333 13.9
2020-Jan-25 21:46 269 14.4
2020-Jan-25 21:32 332 14.4
2020-Jan-25 21:16 203 15.6
2020-Jan-25 21:01 239 0 gusting 5 15.6
2020-Jan-25 20:46 316 15.6
2020-Jan-25 20:32 330 0 gusting 6 16.1
2020-Jan-25 20:16 276 0 gusting 6 16.1
2020-Jan-25 20:00 288 0 gusting 10 16.1
2020-Jan-25 19:47 309 0 gusting 4 16.1
2020-Jan-25 19:30 292 1 gusting 7 16.1
2020-Jan-25 19:15 345 2 gusting 7 16.1
2020-Jan-25 19:00 218 0 gusting 5 16.1
2020-Jan-25 18:45 204 1 gusting 7 16.1
2020-Jan-25 18:31 260 0 gusting 7 16.1
2020-Jan-25 18:17 269 0 gusting 5 16.1
2020-Jan-25 18:02 304 16.1
2020-Jan-25 17:46 181 1 gusting 10 15.6
2020-Jan-25 17:31 269 0 gusting 5 15.6
2020-Jan-25 17:16 238 1 gusting 9 15.6
2020-Jan-25 17:01 276 15.0
2020-Jan-25 16:45 330 0 gusting 5 15.0
2020-Jan-25 16:30 260 0 gusting 8 14.4
2020-Jan-25 16:15 296 14.4
2020-Jan-25 16:00 323 0 gusting 6 14.4
2020-Jan-25 15:45 229 1 gusting 7 13.9
2020-Jan-25 15:30 299 1 gusting 6 13.9
2020-Jan-25 15:16 264 0 gusting 4 13.3
2020-Jan-25 15:02 288 1 gusting 4 12.8
2020-Jan-25 14:47 340 12.8
2020-Jan-25 14:31 235 12.2
2020-Jan-25 14:17 350 11.1
2020-Jan-25 14:01 253 10.0
2020-Jan-25 13:47 229 9.4
2020-Jan-25 13:31 252 8.3
2020-Jan-25 13:15 252 7.8
2020-Jan-25 13:00
2020-Jan-25 12:45
2020-Jan-25 12:30
2020-Jan-25 12:15
2020-Jan-25 12:02
2020-Jan-25 11:46
2020-Jan-25 11:34
2020-Jan-25 11:17
2020-Jan-25 11:01
2020-Jan-25 10:46
2020-Jan-25 10:31
2020-Jan-25 10:15
2020-Jan-25 10:02
2020-Jan-25 09:45
2020-Jan-25 09:30
2020-Jan-25 09:15
2020-Jan-25 09:00 293 13.9
2020-Jan-25 08:33 257 14.4
2020-Jan-25 08:17 257 14.4
2020-Jan-25 08:02 311 14.4
2020-Jan-25 07:47 311 15.0
2020-Jan-25 07:31 311 15.0
2020-Jan-25 07:16 311 15.0
2020-Jan-25 07:01 306 15.0
2020-Jan-25 06:46 245 15.6
2020-Jan-25 06:30 033 15.6
2020-Jan-25 06:15 307 0 gusting 5 16.7
2020-Jan-25 06:00 245 17.2
2020-Jan-25 05:45 252 17.2
2020-Jan-25 05:30 269 16.7
2020-Jan-25 05:17 253 16.7
2020-Jan-25 05:01 211 16.1
2020-Jan-25 04:47 250 16.1
2020-Jan-25 04:31 232 16.1
2020-Jan-25 04:16 234 16.1
2020-Jan-25 04:02 249 16.1
2020-Jan-25 03:46 254 16.1
2020-Jan-25 03:30 219 15.6
2020-Jan-25 03:15 071 15.6
2020-Jan-25 03:01 078 15.6
2020-Jan-25 02:45 128 15.6
2020-Jan-25 02:30 252 15.6
2020-Jan-25 02:15 266 15.0
2020-Jan-25 02:00 266 15.6
2020-Jan-25 01:46 266 15.6
2020-Jan-25 01:33 271 15.0
2020-Jan-25 01:17 269 15.0
2020-Jan-25 01:01 085 14.4
2020-Jan-25 00:46 113 15.0
2020-Jan-25 00:31 110 15.0
2020-Jan-25 00:15 257 15.0
2020-Jan-25 00:00 314 15.0
2020-Jan-24 23:45 236 15.0
2020-Jan-24 23:30 256 15.0
2020-Jan-24 23:16 302 15.0
2020-Jan-24 23:00 200 15.6
2020-Jan-24 22:45 041 15.6
2020-Jan-24 22:32 116 15.6
2020-Jan-24 22:16 101 15.6
2020-Jan-24 22:01 101 15.6
2020-Jan-24 21:47 101 16.1
2020-Jan-24 21:31 262 16.1
2020-Jan-24 21:16 079 16.7
2020-Jan-24 21:01 082 0 gusting 4 16.7
2020-Jan-24 20:46 096 1 gusting 6 17.2
2020-Jan-24 20:31 096 0 gusting 6 17.2
2020-Jan-24 20:15 086 17.2
2020-Jan-24 20:00 240 17.8
2020-Jan-24 19:45 204 0 gusting 5 17.8
2020-Jan-24 19:30 071 1 gusting 7 17.8
2020-Jan-24 19:17 143 1 gusting 7 18.3
2020-Jan-24 19:03 124 0 gusting 6 17.8
2020-Jan-24 18:46 107 1 gusting 6 17.2
2020-Jan-24 18:31 097 1 gusting 5 16.7
2020-Jan-24 18:17 084 2 gusting 7 16.7
2020-Jan-24 18:02 090 0 gusting 6 16.7
2020-Jan-24 17:46 126 0 gusting 6 16.1
2020-Jan-24 17:31 091 2 gusting 7 15.0
2020-Jan-24 17:17 096 1 gusting 7 15.0
2020-Jan-24 17:00 126 15.0
2020-Jan-24 16:45 073 14.4
2020-Jan-24 16:30 105 0 gusting 5 14.4
2020-Jan-24 16:15 101 1 gusting 9 14.4
2020-Jan-24 16:00 113 3 gusting 7 13.9
2020-Jan-24 15:46 082 1 gusting 7 13.9
2020-Jan-24 15:32 091 4 gusting 8 13.3
2020-Jan-24 15:18 089 0 gusting 4 12.8
2020-Jan-24 15:03 111 12.2
2020-Jan-24 14:47 098 11.7
2020-Jan-24 14:31 112 11.7
2020-Jan-24 14:17 101 3 gusting 7 11.7
2020-Jan-24 14:00 110 1 gusting 7 11.7